Time,TemperatureF,DewpointF,PressureIn,WindDirection,WindDirectionDegrees,WindSpeedMPH,WindSpeedGustMPH,Humidity,HourlyPrecipIn,Conditions,Clouds,dailyrainin,SoftwareType,DateUTC
2013-03-26 01:12:00,37.0,30.0,-100.00,SSE,150,2.0,6.0,74,-99.99,,,-99.99,,2013-03-26 05:12:00,
2013-03-26 02:22:00,38.0,28.0,-100.00,SE,135,3.0,9.0,69,-99.99,,,-99.99,,2013-03-26 06:22:00,
2013-03-26 02:32:00,37.0,27.0,-100.00,SE,145,2.0,8.0,67,-99.99,,,-99.99,,2013-03-26 06:32:00,
2013-03-26 02:42:00,37.0,27.0,-100.00,SE,140,5.0,9.0,67,-99.99,,,-99.99,,2013-03-26 06:42:00,
2013-03-26 02:52:00,37.0,27.0,-100.00,SE,145,3.0,10.0,66,-99.99,,,-99.99,,2013-03-26 06:52:00,
2013-03-26 03:02:00,37.0,27.0,-100.00,SSE,155,5.0,12.0,67,-99.99,,,-99.99,,2013-03-26 07:02:00,
2013-03-26 03:12:00,37.0,27.0,-100.00,SE,130,5.0,12.0,67,-99.99,,,-99.99,,2013-03-26 07:12:00,
2013-03-26 03:22:00,37.0,27.0,-100.00,SSE,160,2.0,8.0,67,-99.99,,,-99.99,,2013-03-26 07:22:00,
2013-03-26 03:33:00,37.0,27.0,-100.00,East,100,2.0,8.0,67,-99.99,,,-99.99,,2013-03-26 07:33:00,
2013-03-26 03:43:00,37.0,27.0,-100.00,SE,145,5.0,8.0,66,-99.99,,,-99.99,,2013-03-26 07:43:00,
2013-03-26 03:52:00,37.0,27.0,-100.00,SE,145,5.0,13.0,66,-99.99,,,-99.99,,2013-03-26 07:52:00,
2013-03-26 04:02:00,36.0,28.0,-100.00,SSE,160,3.0,13.0,70,-99.99,,,-99.99,,2013-03-26 08:02:00,
2013-03-26 04:13:00,36.0,28.0,-100.00,SSE,155,2.0,8.0,72,-99.99,,,-99.99,,2013-03-26 08:13:00,
2013-03-26 04:22:00,36.0,29.0,-100.00,ESE,115,1.0,6.0,74,-99.99,,,-99.99,,2013-03-26 08:22:00,
2013-03-26 04:32:00,36.0,28.0,-100.00,SSE,160,2.0,6.0,73,-99.99,,,-99.99,,2013-03-26 08:32:00,
2013-03-26 04:42:00,36.0,28.0,-100.00,ESE,105,2.0,7.0,72,-99.99,,,-99.99,,2013-03-26 08:42:00,
2013-03-26 04:52:00,36.0,27.0,-100.00,SE,130,1.0,3.0,71,-99.99,,,-99.99,,2013-03-26 08:52:00,
2013-03-26 05:02:00,36.0,27.0,-100.00,SE,145,2.0,6.0,70,-99.99,,,-99.99,,2013-03-26 09:02:00,
2013-03-26 05:12:00,35.0,26.0,-100.00,ESE,110,1.0,3.0,69,-99.99,,,-99.99,,2013-03-26 09:12:00,
2013-03-26 05:22:00,35.0,26.0,-100.00,East,80,2.0,7.0,69,-99.99,,,-99.99,,2013-03-26 09:22:00,
2013-03-26 05:30:00,35.0,26.0,-100.00,East,80,2.0,7.0,71,-99.99,,,-99.99,,2013-03-26 09:30:00,
2013-03-26 05:33:00,35.0,26.0,-100.00,ENE,75,2.0,6.0,69,-99.99,,,-99.99,,2013-03-26 09:33:00,
2013-03-26 05:43:00,35.0,26.0,-100.00,SE,125,2.0,7.0,69,-99.99,,,-99.99,,2013-03-26 09:43:00,
2013-03-26 05:52:00,35.0,26.0,-100.00,ESE,110,2.0,6.0,70,-99.99,,,-99.99,,2013-03-26 09:52:00,
2013-03-26 06:03:00,35.0,26.0,-100.00,ESE,110,2.0,6.0,70,-99.99,,,-99.99,,2013-03-26 10:03:00,
2013-03-26 06:12:00,35.0,26.0,-100.00,East,80,2.0,7.0,71,-99.99,,,-99.99,,2013-03-26 10:12:00,
2013-03-26 06:23:00,35.0,26.0,-100.00,East,80,2.0,7.0,71,-99.99,,,-99.99,,2013-03-26 10:23:00,
2013-03-26 06:42:00,35.0,26.0,-100.00,East,80,1.0,6.0,69,-99.99,,,-99.99,,2013-03-26 10:42:00,
2013-03-26 06:52:00,35.0,26.0,-100.00,East,80,1.0,6.0,69,-99.99,,,-99.99,,2013-03-26 10:52:00,
2013-03-26 07:03:00,36.0,26.0,-100.00,SE,135,2.0,9.0,68,-99.99,,,-99.99,,2013-03-26 11:03:00,
2013-03-26 07:12:00,36.0,26.0,-100.00,SE,135,2.0,9.0,68,-99.99,,,-99.99,,2013-03-26 11:12:00,
2013-03-26 07:22:00,36.0,26.0,-100.00,SSE,150,1.0,7.0,68,-99.99,,,-99.99,,2013-03-26 11:22:00,
2013-03-26 07:33:00,36.0,26.0,-100.00,ESE,105,2.0,6.0,68,-99.99,,,-99.99,,2013-03-26 11:33:00,
2013-03-26 07:42:00,36.0,26.0,-100.00,SE,135,1.0,7.0,69,-99.99,,,-99.99,,2013-03-26 11:42:00,
2013-03-26 07:52:00,36.0,26.0,-100.00,SE,130,2.0,7.0,68,-99.99,,,-99.99,,2013-03-26 11:52:00,
2013-03-26 08:03:00,36.0,26.0,-100.00,SE,130,2.0,7.0,68,-99.99,,,-99.99,,2013-03-26 12:03:00,
2013-03-26 08:12:00,36.0,26.0,-100.00,SE,135,3.0,7.0,66,-99.99,,,-99.99,,2013-03-26 12:12:00,
2013-03-26 08:22:00,37.0,26.0,-100.00,South,185,2.0,9.0,66,-99.99,,,-99.99,,2013-03-26 12:22:00,
2013-03-26 08:32:00,37.0,26.0,-100.00,SE,145,2.0,8.0,65,-99.99,,,-99.99,,2013-03-26 12:32:00,
2013-03-26 08:42:00,37.0,26.0,-100.00,SE,145,2.0,8.0,64,-99.99,,,-99.99,,2013-03-26 12:42:00,
2013-03-26 08:52:00,38.0,27.0,-100.00,SE,130,1.0,7.0,64,-99.99,,,-99.99,,2013-03-26 12:52:00,
2013-03-26 09:03:00,38.0,26.0,-100.00,ENE,70,2.0,8.0,62,-99.99,,,-99.99,,2013-03-26 13:03:00,
2013-03-26 09:12:00,39.0,27.0,-100.00,East,85,3.0,8.0,61,-99.99,,,-99.99,,2013-03-26 13:12:00,
2013-03-26 09:23:00,39.0,26.0,-100.00,SSE,150,2.0,13.0,59,-99.99,,,-99.99,,2013-03-26 13:23:00,
2013-03-26 09:32:00,40.0,26.0,-100.00,SSE,155,3.0,9.0,58,-99.99,,,-99.99,,2013-03-26 13:32:00,
2013-03-26 09:42:00,40.0,26.0,-100.00,SSE,155,3.0,9.0,58,-99.99,,,-99.99,,2013-03-26 13:42:00,
2013-03-26 09:52:00,40.0,26.0,-100.00,ESE,115,2.0,8.0,57,-99.99,,,-99.99,,2013-03-26 13:52:00,
2013-03-26 10:02:00,40.0,24.0,-100.00,SE,140,2.0,7.0,52,-99.99,,,-99.99,,2013-03-26 14:02:00,
2013-03-26 10:12:00,41.0,24.0,-100.00,East,80,2.0,9.0,51,-99.99,,,-99.99,,2013-03-26 14:12:00,
2013-03-26 10:23:00,41.0,24.0,-100.00,SSE,165,3.0,8.0,50,-99.99,,,-99.99,,2013-03-26 14:23:00,
2013-03-26 10:33:00,42.0,24.0,-100.00,East,85,3.0,10.0,49,-99.99,,,-99.99,,2013-03-26 14:33:00,
2013-03-26 10:42:00,44.0,25.0,-100.00,East,80,2.0,12.0,46,-99.99,,,-99.99,,2013-03-26 14:42:00,
2013-03-26 10:52:00,44.0,25.0,-100.00,East,80,2.0,12.0,46,-99.99,,,-99.99,,2013-03-26 14:52:00,
2013-03-26 11:02:00,44.0,25.0,-100.00,SE,125,1.0,10.0,47,-99.99,,,-99.99,,2013-03-26 15:02:00,
2013-03-26 11:12:00,44.0,24.0,-100.00,SSE,160,1.0,8.0,45,-99.99,,,-99.99,,2013-03-26 15:12:00,
2013-03-26 11:22:00,45.0,24.0,-100.00,NE,50,5.0,12.0,43,-99.99,,,-99.99,,2013-03-26 15:22:00,
2013-03-26 11:30:00,45.0,25.0,-100.00,ENE,60,3.0,13.0,45,-99.99,,,-99.99,,2013-03-26 15:30:00,
2013-03-26 11:33:00,46.0,25.0,-100.00,ENE,60,3.0,8.0,44,-99.99,,,-99.99,,2013-03-26 15:33:00,
2013-03-26 11:43:00,44.0,24.0,-100.00,NE,40,3.0,13.0,44,-99.99,,,-99.99,,2013-03-26 15:43:00,
2013-03-26 11:52:00,44.0,25.0,-100.00,NE,45,3.0,9.0,47,-99.99,,,-99.99,,2013-03-26 15:52:00,
2013-03-26 12:03:00,44.0,25.0,-100.00,NE,45,3.0,9.0,47,-99.99,,,-99.99,,2013-03-26 16:03:00,
2013-03-26 12:13:00,45.0,25.0,-100.00,ENE,60,3.0,13.0,45,-99.99,,,-99.99,,2013-03-26 16:13:00,
2013-03-26 12:23:00,45.0,25.0,-100.00,ENE,60,3.0,13.0,45,-99.99,,,-99.99,,2013-03-26 16:23:00,
2013-03-26 13:23:00,46.0,24.0,-100.00,ENE,60,5.0,12.0,42,-99.99,,,-99.99,,2013-03-26 17:23:00,
2013-03-26 13:33:00,45.0,24.0,-100.00,ENE,60,5.0,13.0,43,-99.99,,,-99.99,,2013-03-26 17:33:00,
2013-03-26 13:42:00,45.0,24.0,-100.00,ENE,70,6.0,13.0,42,-99.99,,,-99.99,,2013-03-26 17:42:00,
2013-03-26 13:52:00,46.0,25.0,-100.00,East,100,3.0,12.0,43,-99.99,,,-99.99,,2013-03-26 17:52:00,
2013-03-26 14:03:00,46.0,25.0,-100.00,ENE,70,6.0,12.0,43,-99.99,,,-99.99,,2013-03-26 18:03:00,
2013-03-26 14:12:00,47.0,25.0,-100.00,NE,35,5.0,10.0,41,-99.99,,,-99.99,,2013-03-26 18:12:00,
2013-03-26 14:23:00,49.0,24.0,-100.00,East,95,5.0,12.0,38,-99.99,,,-99.99,,2013-03-26 18:23:00,
2013-03-26 14:34:00,49.0,24.0,-100.00,East,95,5.0,12.0,38,-99.99,,,-99.99,,2013-03-26 18:34:00,
2013-03-26 14:42:00,48.0,24.0,-100.00,SE,145,2.0,12.0,39,-99.99,,,-99.99,,2013-03-26 18:42:00,
2013-03-26 14:53:00,48.0,24.0,-100.00,NE,50,3.0,10.0,38,-99.99,,,-99.99,,2013-03-26 18:53:00,
2013-03-26 15:03:00,45.0,20.0,-100.00,East,95,6.0,15.0,37,-99.99,,,-99.99,,2013-03-26 19:03:00,
2013-03-26 15:12:00,47.0,24.0,-100.00,ENE,70,5.0,13.0,40,-99.99,,,-99.99,,2013-03-26 19:12:00,
2013-03-26 15:22:00,49.0,25.0,-100.00,East,85,5.0,13.0,39,-99.99,,,-99.99,,2013-03-26 19:22:00,
2013-03-26 15:33:00,50.0,24.0,-100.00,East,90,3.0,9.0,36,-99.99,,,-99.99,,2013-03-26 19:33:00,
2013-03-26 15:42:00,50.0,23.0,-100.00,ENE,65,6.0,15.0,35,-99.99,,,-99.99,,2013-03-26 19:42:00,
2013-03-26 15:53:00,51.0,24.0,-100.00,East,100,3.0,12.0,34,-99.99,,,-99.99,,2013-03-26 19:53:00,
2013-03-26 16:02:00,52.0,22.0,-100.00,SSE,150,2.0,9.0,31,-99.99,,,-99.99,,2013-03-26 20:02:00,
2013-03-26 16:13:00,49.0,22.0,-100.00,NNE,25,5.0,10.0,34,-99.99,,,-99.99,,2013-03-26 20:13:00,
2013-03-26 16:23:00,51.0,21.0,-100.00,NE,55,3.0,10.0,30,-99.99,,,-99.99,,2013-03-26 20:23:00,
2013-03-26 16:32:00,52.0,22.0,-100.00,NE,50,3.0,8.0,30,-99.99,,,-99.99,,2013-03-26 20:32:00,
2013-03-26 16:43:00,51.0,21.0,-100.00,NNW,345,3.0,14.0,30,-99.99,,,-99.99,,2013-03-26 20:43:00,
2013-03-26 16:52:00,51.0,20.0,-100.00,East,90,3.0,13.0,29,-99.99,,,-99.99,,2013-03-26 20:52:00,
2013-03-26 17:02:00,49.0,19.0,-100.00,ENE,65,8.0,15.0,30,-99.99,,,-99.99,,2013-03-26 21:02:00,
2013-03-26 17:13:00,50.0,20.0,-100.00,NE,45,3.0,13.0,30,-99.99,,,-99.99,,2013-03-26 21:13:00,
2013-03-26 17:22:00,50.0,19.0,-100.00,NE,55,5.0,12.0,29,-99.99,,,-99.99,,2013-03-26 21:22:00,
2013-03-26 17:30:00,49.0,18.0,-100.00,NE,40,2.0,9.0,29,-99.99,,,-99.99,,2013-03-26 21:30:00,
2013-03-26 17:33:00,50.0,19.0,-100.00,East,90,2.0,10.0,30,-99.99,,,-99.99,,2013-03-26 21:33:00,
2013-03-26 17:43:00,49.0,19.0,-100.00,ENE,65,6.0,14.0,30,-99.99,,,-99.99,,2013-03-26 21:43:00,
2013-03-26 17:52:00,51.0,19.0,-100.00,NE,45,2.0,9.0,28,-99.99,,,-99.99,,2013-03-26 21:52:00,
2013-03-26 18:02:00,51.0,19.0,-100.00,NE,45,2.0,9.0,28,-99.99,,,-99.99,,2013-03-26 22:02:00,
2013-03-26 18:12:00,49.0,18.0,-100.00,NE,40,2.0,9.0,29,-99.99,,,-99.99,,2013-03-26 22:12:00,
2013-03-26 18:22:00,49.0,18.0,-100.00,NE,40,2.0,9.0,29,-99.99,,,-99.99,,2013-03-26 22:22:00,
2013-03-26 18:42:00,49.0,19.0,-100.00,NE,40,5.0,14.0,30,-99.99,,,-99.99,,2013-03-26 22:42:00,
2013-03-26 18:52:00,49.0,19.0,-100.00,NE,40,5.0,14.0,30,-99.99,,,-99.99,,2013-03-26 22:52:00,
2013-03-26 19:01:00,48.0,18.0,-100.00,NE,55,5.0,9.0,30,-99.99,,,-99.99,,2013-03-26 23:01:00,
2013-03-26 19:10:00,47.0,18.0,-100.00,NE,55,2.0,7.0,31,-99.99,,,-99.99,,2013-03-26 23:10:00,
2013-03-26 19:22:00,47.0,19.0,-100.00,North,0,2.0,7.0,33,-99.99,,,-99.99,,2013-03-26 23:22:00,
2013-03-26 19:32:00,47.0,19.0,-100.00,North,0,2.0,7.0,33,-99.99,,,-99.99,,2013-03-26 23:32:00,
2013-03-26 19:42:00,45.0,20.0,-100.00,WNW,295,1.0,5.0,36,-99.99,,,-99.99,,2013-03-26 23:42:00,
2013-03-26 19:52:00,45.0,20.0,-100.00,North,10,1.0,5.0,37,-99.99,,,-99.99,,2013-03-26 23:52:00,
2013-03-26 20:02:00,44.0,19.0,-100.00,East,85,1.0,3.0,37,-99.99,,,-99.99,,2013-03-27 00:02:00,
2013-03-26 20:12:00,44.0,20.0,-100.00,West,265,1.0,3.0,38,-99.99,,,-99.99,,2013-03-27 00:12:00,
2013-03-26 20:22:00,44.0,21.0,-100.00,NNE,30,1.0,5.0,40,-99.99,,,-99.99,,2013-03-27 00:22:00,
2013-03-26 20:33:00,44.0,21.0,-100.00,NNE,30,1.0,5.0,40,-99.99,,,-99.99,,2013-03-27 00:33:00,
2013-03-26 20:42:00,41.0,20.0,-100.00,North,0,1.0,3.0,43,-99.99,,,-99.99,,2013-03-27 00:42:00,
2013-03-26 20:52:00,40.0,21.0,-100.00,WSW,240,1.0,3.0,47,-99.99,,,-99.99,,2013-03-27 00:52:00,
2013-03-26 21:02:00,39.0,21.0,-100.00,NE,45,2.0,3.0,48,-99.99,,,-99.99,,2013-03-27 01:02:00,
2013-03-26 21:12:00,40.0,21.0,-100.00,East,100,2.0,7.0,46,-99.99,,,-99.99,,2013-03-27 01:12:00,
2013-03-26 21:23:00,40.0,21.0,-100.00,WSW,250,1.0,6.0,45,-99.99,,,-99.99,,2013-03-27 01:23:00,
2013-03-26 21:33:00,40.0,21.0,-100.00,North,0,2.0,5.0,46,-99.99,,,-99.99,,2013-03-27 01:33:00,
2013-03-26 21:42:00,39.0,21.0,-100.00,NE,50,1.0,5.0,47,-99.99,,,-99.99,,2013-03-27 01:42:00,
2013-03-26 21:52:00,39.0,21.0,-100.00,NE,50,1.0,5.0,47,-99.99,,,-99.99,,2013-03-27 01:52:00,
2013-03-26 22:03:00,40.0,21.0,-100.00,North,5,1.0,7.0,47,-99.99,,,-99.99,,2013-03-27 02:03:00,
2013-03-26 22:12:00,40.0,21.0,-100.00,East,80,5.0,8.0,47,-99.99,,,-99.99,,2013-03-27 02:12:00,
2013-03-26 22:22:00,40.0,22.0,-100.00,NE,55,2.0,7.0,48,-99.99,,,-99.99,,2013-03-27 02:22:00,
2013-03-26 22:32:00,40.0,22.0,-100.00,East,80,2.0,7.0,48,-99.99,,,-99.99,,2013-03-27 02:32:00,
2013-03-26 22:42:00,39.0,21.0,-100.00,ENE,65,2.0,7.0,49,-99.99,,,-99.99,,2013-03-27 02:42:00,
2013-03-26 22:52:00,39.0,21.0,-100.00,East,85,1.0,6.0,48,-99.99,,,-99.99,,2013-03-27 02:52:00,
2013-03-26 23:02:00,39.0,21.0,-100.00,ENE,60,2.0,8.0,48,-99.99,,,-99.99,,2013-03-27 03:02:00,
2013-03-26 23:10:00,38.0,21.0,-100.00,East,80,2.0,7.0,50,-99.99,,,-99.99,,2013-03-27 03:10:00,
2013-03-26 23:12:00,38.0,21.0,-100.00,ENE,65,2.0,7.0,50,-99.99,,,-99.99,,2013-03-27 03:12:00,
2013-03-26 23:22:00,38.0,21.0,-100.00,NE,35,2.0,8.0,50,-99.99,,,-99.99,,2013-03-27 03:22:00,
2013-03-26 23:33:00,38.0,21.0,-100.00,NE,55,2.0,9.0,49,-99.99,,,-99.99,,2013-03-27 03:33:00,
2013-03-26 23:42:00,38.0,21.0,-100.00,ENE,70,2.0,5.0,50,-99.99,,,-99.99,,2013-03-27 03:42:00,
2013-03-26 23:53:00,38.0,21.0,-100.00,East,80,2.0,7.0,50,-99.99,,,-99.99,,2013-03-27 03:53:00,